Location: Wieruszow
(51.2830°N, 18.1670°E)
Time: 22:41:02
(UTC+02:00)

ISS - Visible Passes

Search period start: 23 May 2018 00:00
Search period end: 02 June 2018 00:00
Orbit: 402 x 407 km, 51.6° (Epoch: 24 May)

Date Brightness Start Highest point End Pass type
(mag) Time Alt. Az. Time Alt. Az. Time Alt. Az.
23 May -3.9 00:38:48 10° W 00:42:05 83° N 00:45:22 10° E visible
23 May -3.7 02:15:20 10° W 02:18:30 48° SSW 02:21:39 10° SE visible
23 May -1.9 03:52:58 10° WSW 03:54:23 12° SW 03:55:49 10° SSW visible
23 May -3.7 22:10:15 10° SW 22:13:26 53° SSE 22:16:39 10° E visible
23 May -3.8 23:46:36 10° W 23:49:53 82° N 23:53:10 10° E visible
24 May -4.0 01:23:07 10° W 01:26:22 66° SSW 01:27:55 28° ESE visible
24 May -1.5 03:00:02 10° W 03:00:19 11° W 03:00:19 11° W visible
24 May -3.9 22:54:23 10° W 22:57:40 89° N 23:00:57 10° E visible
25 May -4.0 00:30:55 10° W 00:34:12 83° S 00:35:43 29° ESE visible
25 May -1.7 02:07:33 10° W 02:08:18 15° W 02:08:18 15° W visible
25 May -3.9 22:02:11 10° WSW 22:05:28 78° SSE 22:08:45 10° E visible
25 May -3.9 23:38:42 10° W 23:41:59 85° N 23:44:38 15° E visible
26 May -2.7 01:15:14 10° W 01:17:14 29° WSW 01:17:14 29° WSW visible
26 May -3.8 22:46:27 10° W 22:49:45 82° N 22:53:02 10° E visible
27 May -3.9 00:22:59 10° W 00:26:13 59° SSW 00:26:24 58° S visible
27 May -3.8 21:54:12 10° W 21:57:30 85° N 22:00:47 10° E visible
27 May -4.0 23:30:44 10° W 23:34:01 78° SSW 23:35:40 27° ESE visible
28 May -1.6 01:07:27 10° W 01:08:17 15° W 01:08:17 15° W visible
28 May -3.9 22:38:29 10° W 22:41:46 88° N 22:44:59 10° E visible
29 May -3.0 00:15:03 10° W 00:17:37 34° SW 00:17:37 34° SW visible
29 May -3.7 21:46:13 10° W 21:49:30 82° N 21:52:47 10° E visible
29 May -3.7 23:22:44 10° W 23:25:56 53° SSW 23:26:58 35° SE visible
30 May -3.9 22:30:27 10° W 22:33:42 71° SSW 22:36:21 15° ESE visible
31 May -2.0 00:07:15 10° W 00:08:59 19° WSW 00:08:59 19° WSW visible
31 May -3.8 21:38:08 10° W 21:41:26 87° S 21:44:43 10° ESE visible
31 May -2.9 23:14:44 10° W 23:17:43 32° SSW 23:18:24 29° S visible
01 Jun -3.4 22:22:22 10° W 22:25:32 47° SSW 22:27:50 16° SE visible
